Info for pilots

Image

Airfield Info:

EBUL
N51 08.7 - E003 28.6
ELEV 95' / 29m
RWY 07 / 25
799m * 45m (CIV) - 2980m (MIL)
Ursel Radio 135.130
Tel Aero Club Brugge : +32(0)9 374 25 75
Tel Vliegclub Ursel : +32(0)9 374 12 90

Operational Hours
FRI: 14h00LT - SS+30 MIN
SAT, SUN and HOL: TKOF and LDG: 10h00LT - SS+30 MIN
After 20h00LT to SS+30 MIN: only LDG allowed (PN)

Local Traffic Regulations
The use of the AD is subject to PPR from the OPR;
AD given in concession to the CIV club outside MIL ACT;
Solo training flights can only be performed after two reconnaissance flights with instructor. The solo training flight must be performed within six weeks after the first reconnaissance flight;
Jet aircraft operations not allowed.

Obstacles:
trees between 10M AGL and 22M AGL, caution when crosswind:
North of the RWY, 75M from CL, along the whole length of the RWY;
South of the RWY, 75M from CL, and at THR RWY 25 from THR RWY 07 to 140M east of THR RWY 07



Image

Image

Watch out!

Flight Procedures
RWY 07 and 25 left hand circuit, 1.200 FT QNH

Image

Taxi procedures:
RWY 07 (TKOF):
taxi on the north side of the RWY to the HLDG position of RWY 07

RWY 07 (LDG):
after landing roll out to the second intersection (THR RWY 25), turn left, turn left again, taxi via the TWY to the first intersection, turn left, cross the RWY (check for landing ACFT), taxi on the south side of the RWY to the AD reporting office

RWY 25 (TKOF):
taxi on the north side of the first intersection, turn left, next turn right, taxi via the TWY to the second intersection, turn right, taxi to the HLDG of RWY 25

RWY 25 (LDG):
after landing roll out to the end of the RWY, taxi on the south side of the RWY to the AD reporting office.





Image

Taxi & Circuit?

Image
Image
Image
Image

Current Metars - Auto refresh

EBOS - Oostende
2021/04/18 06:20 EBOS 180620Z 35004KT 9999 FEW016 06/03 Q1025 NOSIG


EBAW - Antwerpen
2021/04/18 06:20 EBAW 180620Z 36004KT 320V040 8000 NSC 06/04 Q1024 NOSIG


EBBR - Brussel
2021/04/18 06:20 EBBR 180620Z 31003KT 7000 NSC 05/04 Q1024 TEMPO 4500 BR

Source : NOAA.GOV

Current TAFs - Auto refresh

EBOS - Oostende
2021/04/18 06:27 TAF EBOS 180510Z 1806/1912 35007KT 9999 SCT014

EBAW - Antwerpen
2021/04/18 06:27 TAF TAF EBAW 180510Z 1806/1815 32004KT CAVOK PROB30 TEMPO 1806/1807 4000 BR MIFG

EBBR - Brussel
2021/04/18 06:28 TAF EBBR 180510Z 1806/1912 33005KT CAVOK PROB30 TEMPO 1903/1907 3000 BR BKN004

Source : NOAA.GOV
Image

Webcam

Direction runway 07 :